Погода в Мирном

Россия / Иркутская область     56°52′53″N   97°42′21″E
темп.,
°C
ветер,
м/с
пор.,
м/с
влажн.,
%
обл.,
%
осадки,
мм/ч
давл.,
гПа
погр.,
м
19 сентября, вс
вс1923:00+14з2975100 0.0 1007277
02:00+12зюз2898100 1.6 1008353
05:00+10зюз249898 1.4 1009103
08:00+10ююз11979 1.4 101121
11:00+14ююз12795 0.0 1010546
14:00+16зюз126652 0.6 1009827
17:00+17ю115593 0.1 10081185
20:00+12в2281100 0.1 100815
20 сентября, пн
пн2023:00+12вюв1280100 0.0 100737
02:00+10всв1193100 0.5 100512
05:00+10з1197100 2.9 100414
08:00+10юз2798100 3.1 1005189
11:00+14зсз2867100 0.0 1003630
14:00+12зюз2579100 0.4 1004655
17:00+9з51087100 0.6 1007940
20:00+7з41087100 2.1 1009882
21 сентября, вт
вт2123:00+4зюз2994100 0.0 1011383
02:00+2юз22955 0.0 101227
05:00+1ююз23975 0.0 101255
08:00+1ююз27965 0.0 1012184
11:00+7юз3669100 0.0 1012731
14:00+9юз4759100 0.2 10111370
17:00+6юз3893100 1.3 1011793
20:00+4зюз3894100 1.9 1012556
22 сентября, ср
ср2223:00+2юз2598100 0.0 1014144
02:00+1юз399832 0.1 1015335
05:00−1ююз269926 0.0 1016146
08:000ююз279897 0.1 1017237
11:00+2юз2690100 0.1 1018609
14:00+4юз3583100 0.3 1019848
17:00+5з368183 0.6 1020956
20:00+3зюз118861 0.7 102212
23 сентября, чт
чт2323:00−1ююз119453 0.0 102310
02:00−2ю229657 0.0 102419
05:00−2ююв229773 0.0 102325
08:00−1юв129490 0.0 102453
11:00+5юв247287 0.0 1022517
14:00+8ююв3451100 0.1 10211466
17:00+8ююв135295 0.4 10201281
20:00+4с3684100 0.6 1022124